World > North America > United States > Iowa   City of Albia, Iowa

Albia, Iowa Regional Weather

Lat: 41.03N, Lon: 92.8W
Wx Zone: IAZ085Web Search

Helpful Tip: You can add this page to Bookmarks by pressing the Ctrl key & d key at the same time. Mac users press command & d.

Feedback


°F Click to change Albia hourly weather to Imperial units.Click to change Albia hourly weather to Metric units. °C
Albia Weather Map
UTC Time: 5/9/2021, 13:28
Your Time:

Albia, IA Regional Weather

Expires:202105091400;;839736
ASUS43 KDMX 091306
RWRIA 

WEATHER ROUNDUP FOR IOWA
NATIONAL WEATHER SERVICE DES MOINES IA
800 AM CDT SUN MAY 09 2021

NOTE: "FAIR" INDICATES FEW OR NO CLOUDS BELOW 12,000 FEET WITH NO
SIGNIFICANT WEATHER AND/OR OBSTRUCTIONS TO VISIBILITY.

* - THESE STATIONS ARE NOT NWS STATIONS...THUS NOT UNDER NWS
QUALITY CONTROL.  THEY ALSO DO NOT REPORT WEATHER SUCH 
AS PRECIPITATION OR FOG.  


IAZ062-063-075>077-085>089-095>099-091400-
   SOUTHEAST IOWA
  
CITY           SKY/WX    TMP DP  RH WIND       PRES   REMARKS
BURLINGTON     CLOUDY    41  39  93 NE22G30   29.82R                  
FAIRFIELD *    CLOUDY    39  39 100 NE20G31   29.88R WCI  30          
FORT MADISON * CLOUDY    41  41 100 NE12G21   29.82F                  
KEOKUK *       CLOUDY    41  41 100 NE13G20   29.80F                  
OSKALOOSA *    CLOUDY    42  41  97 NE18G25   29.91R                  
OTTUMWA        CLOUDY    40  39  97 NE20      29.89R WCI  30          
WASHINGTON *   PTSUNNY   41  41 100 NE20      29.88R                  
$$

ABBREVIATIONS USED IN REMARKS
   TC - TEMPERATURES IN CELSIUS
  WCI - WIND CHILL INDEX
   HX - HEAT INDEX
  VSB - VISIBILITY  
$$

  

SKY/WX - Weather  TMP - Temperature  DP - Dew Point  RH - Relative Humidity
WIND - Wind Direction/Speed PRES - Barometric Pressure VSB - Visibility
WCI - Wind Chill Index E13G22 Wind - East Wind 13 mph/Gusts of 22 mph